User: anonymous
Location: Newsoms
(36.6240°N, 77.1250°W)
Time: 11:55:04
(UTC-04:00)
Language:

BREEZE-M DEB (TANK) - Orbit

View from above orbital plane
View from above orbital plane
View from above satellite
View from above satellite

Ground track
Ground track

The orbit data is extracted from the following two-line orbital elements,

1 29649U 06056B   14211.64364347  .00004438  00000-0  59972-3 0  9717
2 29649 049.4997 279.7049 5428272 227.6113 067.3241 04.94188192135394
Epoch (UTC): 30 July 2014 15:26:50
Eccentricity: 0.5428272
inclination: 49.4997°
perigee height: 278 km
apogee height: 16084 km
right ascension of ascending node: 279.7049°
argument of perigee: 227.6113°
revolutions per day: 4.94188192
mean anomaly at epoch: 67.3241°
orbit number at epoch: 13539

The dashed part of the orbit path shows where the satellite is in the earth's shadow,  

DLR